When you browse on this site, cookies collect data to enhance your experience and personalize the content and advertising you see.
Visit our Privacy Policy to learn more. By continuing to use the site, you agree to this use of cookies and data.
  • en Suisse
  • Liste des pays
  • À 7 jours
  • Température de l'eau
  • Carte satellitaire
  • Carte météo
  • Widgets météo
  • user-avatar
    Se connecter

    Météo par heure à Yangzhou

    Ce jour, 26 Mai, Dimanche

    Heure Température Précipitation Vent Pression Humidité
    00:00 +25°C° 0.1 mm 5 m/s 754 mmHg 86%
    01:00 +25°C° 0.1 mm 5 m/s 753 mmHg 87%
    02:00 +23°C° 0 mm 5 m/s 753 mmHg 88%
    03:00 +23°C° 0.1 mm 5 m/s 753 mmHg 89%
    04:00 +23°C° 0.1 mm 5 m/s 752 mmHg 89%
    05:00 +23°C° 0.1 mm 5 m/s 752 mmHg 90%
    06:00 +23°C° 1.5 mm 5 m/s 752 mmHg 90%
    07:00 +23°C° 1.5 mm 5 m/s 752 mmHg 91%
    08:00 +23°C° 0 mm 5 m/s 752 mmHg 89%
    09:00 +23°C° 4.8 mm 5 m/s 752 mmHg 90%
    10:00 +23°C° 4.8 mm 6 m/s 752 mmHg 91%
    11:00 +23°C° 4.8 mm 6 m/s 751 mmHg 93%
    12:00 +23°C° 1.9 mm 5 m/s 751 mmHg 91%
    13:00 +25°C° 1.9 mm 5 m/s 750 mmHg 90%
    14:00 +26°C° 1.9 mm 4 m/s 750 mmHg 88%
    15:00 +27°C° 0.3 mm 4 m/s 750 mmHg 84%
    16:00 +28°C° 0.3 mm 4 m/s 750 mmHg 80%
    17:00 +29°C° 0.3 mm 4 m/s 749 mmHg 76%
    18:00 +27°C° 0 mm 3 m/s 750 mmHg 80%
    19:00 +26°C° 0 mm 2 m/s 750 mmHg 83%
    20:00 +25°C° 0 mm 1 m/s 750 mmHg 87%
    21:00 +25°C° 0 mm 1 m/s 750 mmHg 88%
    22:00 +25°C° 0 mm 2 m/s 751 mmHg 89%
    23:00 +25°C° 0 mm 2 m/s 751 mmHg 90%

    Demain, 27 Mai, Lundi

    Heure Température Précipitation Vent Pression Humidité
    00:00 +25°C° 0 mm 2 m/s 751 mmHg 91%
    01:00 +25°C° 0 mm 2 m/s 751 mmHg 92%
    02:00 +24°C° 0 mm 3 m/s 751 mmHg 93%
    03:00 +24°C° 0 mm 3 m/s 751 mmHg 93%
    04:00 +24°C° 0 mm 3 m/s 751 mmHg 94%
    05:00 +24°C° 0 mm 3 m/s 751 mmHg 94%
    06:00 +25°C° 0 mm 2 m/s 751 mmHg 91%
    07:00 +26°C° 0 mm 2 m/s 752 mmHg 87%
    08:00 +27°C° 0 mm 2 m/s 752 mmHg 84%
    09:00 +27°C° 0 mm 4 m/s 753 mmHg 80%
    10:00 +28°C° 0 mm 5 m/s 754 mmHg 76%
    11:00 +29°C° 0 mm 7 m/s 755 mmHg 72%
    12:00 +27°C° 0 mm 7 m/s 755 mmHg 70%
    13:00 +24°C° 0 mm 7 m/s 756 mmHg 67%
    14:00 +22°C° 0 mm 8 m/s 756 mmHg 65%
    15:00 +23°C° 0 mm 8 m/s 757 mmHg 59%
    16:00 +24°C° 0 mm 8 m/s 757 mmHg 53%
    17:00 +24°C° 0 mm 8 m/s 758 mmHg 47%
    18:00 +23°C° 0 mm 7 m/s 759 mmHg 49%
    19:00 +21°C° 0 mm 5 m/s 759 mmHg 51%
    20:00 +20°C° 0 mm 4 m/s 760 mmHg 53%
    21:00 +19°C° 0 mm 4 m/s 761 mmHg 54%
    22:00 +18°C° 0 mm 3 m/s 761 mmHg 55%
    23:00 +18°C° 0 mm 3 m/s 762 mmHg 56%

    Après-demain, 28 Mai, Mardi

    Heure Température Précipitation Vent Pression Humidité
    00:00 +18°C° 0 mm 3 m/s 762 mmHg 57%
    01:00 +17°C° 0 mm 2 m/s 762 mmHg 58%
    02:00 +17°C° 0 mm 2 m/s 762 mmHg 59%
    03:00 +17°C° 0 mm 2 m/s 762 mmHg 61%
    04:00 +16°C° 0 mm 2 m/s 762 mmHg 63%
    05:00 +16°C° 0 mm 2 m/s 762 mmHg 65%
    06:00 +17°C° 0 mm 2 m/s 762 mmHg 59%
    07:00 +19°C° 0 mm 2 m/s 762 mmHg 53%
    08:00 +21°C° 0 mm 3 m/s 762 mmHg 46%
    09:00 +24°C° 0 mm 3 m/s 762 mmHg 40%
    10:00 +26°C° 0 mm 3 m/s 763 mmHg 33%
    11:00 +27°C° 0 mm 4 m/s 763 mmHg 26%
    12:00 +28°C° 0 mm 4 m/s 762 mmHg 24%
    13:00 +29°C° 0 mm 4 m/s 762 mmHg 23%
    14:00 +30°C° 0 mm 4 m/s 761 mmHg 21%
    15:00 +29°C° 0 mm 4 m/s 761 mmHg 22%
    16:00 +29°C° 0 mm 4 m/s 761 mmHg 24%
    17:00 +28°C° 0 mm 3 m/s 760 mmHg 26%
    18:00 +27°C° 0 mm 3 m/s 761 mmHg 27%
    19:00 +25°C° 0 mm 3 m/s 761 mmHg 29%
    20:00 +24°C° 0 mm 3 m/s 761 mmHg 31%
    21:00 +22°C° 0 mm 3 m/s 761 mmHg 31%
    22:00 +21°C° 0 mm 3 m/s 761 mmHg 31%
    23:00 +21°C° 0 mm 3 m/s 762 mmHg 31%

    29 Mai, Mercredi

    Heure Température Précipitation Vent Pression Humidité
    00:00 +21°C° 0 mm 2 m/s 761 mmHg 31%
    01:00 +21°C° 0 mm 2 m/s 761 mmHg 31%
    02:00 +20°C° 0 mm 2 m/s 760 mmHg 30%
    03:00 +20°C° 0 mm 2 m/s 760 mmHg 30%
    04:00 +20°C° 0 mm 2 m/s 760 mmHg 30%
    05:00 +20°C° 0 mm 1 m/s 760 mmHg 31%
    06:00 +22°C° 0 mm 1 m/s 760 mmHg 29%
    07:00 +23°C° 0 mm 1 m/s 760 mmHg 28%
    08:00 +25°C° 0 mm 2 m/s 760 mmHg 26%
    09:00 +27°C° 0 mm 2 m/s 760 mmHg 24%
    10:00 +28°C° 0 mm 3 m/s 760 mmHg 22%
    11:00 +30°C° 0 mm 3 m/s 760 mmHg 19%
    12:00 +32°C° 0 mm 4 m/s 760 mmHg 19%
    13:00 +32°C° 0 mm 5 m/s 759 mmHg 19%
    14:00 +33°C° 0 mm 6 m/s 758 mmHg 19%
    15:00 +32°C° 0 mm 6 m/s 758 mmHg 21%
    16:00 +32°C° 0 mm 6 m/s 757 mmHg 22%
    17:00 +30°C° 0 mm 6 m/s 757 mmHg 24%
    18:00 +28°C° 0 mm 6 m/s 757 mmHg 26%
    19:00 +26°C° 0 mm 5 m/s 757 mmHg 29%
    20:00 +25°C° 0 mm 5 m/s 757 mmHg 32%
    21:00 +23°C° 0 mm 5 m/s 757 mmHg 32%
    22:00 +23°C° 0 mm 5 m/s 757 mmHg 33%
    23:00 +22°C° 0 mm 5 m/s 758 mmHg 33%

    30 Mai, Jeudi

    Heure Température Précipitation Vent Pression Humidité
    00:00 +22°C° 0 mm 5 m/s 757 mmHg 33%
    01:00 +22°C° 0 mm 5 m/s 757 mmHg 33%
    02:00 +22°C° 0 mm 5 m/s 756 mmHg 32%
    03:00 +21°C° 0.4 mm 5 m/s 756 mmHg 40%
    04:00 +20°C° 0.4 mm 5 m/s 756 mmHg 48%
    05:00 +19°C° 0.4 mm 5 m/s 756 mmHg 56%
    06:00 +20°C° 0 mm 5 m/s 756 mmHg 56%
    07:00 +21°C° 0 mm 5 m/s 756 mmHg 55%
    08:00 +22°C° 0 mm 5 m/s 757 mmHg 54%
    09:00 +22°C° 0.3 mm 4 m/s 757 mmHg 57%
    10:00 +22°C° 0.3 mm 3 m/s 756 mmHg 60%
    11:00 +23°C° 0.3 mm 2 m/s 756 mmHg 62%
    12:00 +23°C° 0.1 mm 2 m/s 756 mmHg 61%
    13:00 +24°C° 0.1 mm 2 m/s 755 mmHg 60%
    14:00 +24°C° 0.1 mm 2 m/s 755 mmHg 59%
    15:00 +24°C° 0.1 mm 2 m/s 755 mmHg 60%
    16:00 +24°C° 0.1 mm 2 m/s 755 mmHg 62%
    17:00 +24°C° 0.1 mm 2 m/s 755 mmHg 63%
    18:00 +23°C° 0.3 mm 2 m/s 755 mmHg 67%
    19:00 +21°C° 0.3 mm 2 m/s 755 mmHg 71%
    20:00 +22°C° 0.3 mm 1 m/s 756 mmHg 76%
    21:00 +21°C° 0.3 mm 2 m/s 756 mmHg 78%
    22:00 +21°C° 0.3 mm 2 m/s 756 mmHg 80%
    23:00 +21°C° 0.3 mm 2 m/s 756 mmHg 82%

    31 Mai, Vendredi

    Heure Température Précipitation Vent Pression Humidité
    00:00 +20°C° 0.4 mm 2 m/s 756 mmHg 83%
    01:00 +20°C° 0.4 mm 2 m/s 756 mmHg 84%
    02:00 +20°C° 0.4 mm 2 m/s 756 mmHg 85%
    03:00 +20°C° 0 mm 2 m/s 756 mmHg 85%
    04:00 +21°C° 0 mm 1 m/s 756 mmHg 85%
    05:00 +21°C° 0 mm 1 m/s 756 mmHg 84%
    06:00 +22°C° 0 mm 1 m/s 757 mmHg 80%
    07:00 +23°C° 0 mm 1 m/s 757 mmHg 75%
    08:00 +25°C° 0 mm 1 m/s 757 mmHg 71%
    09:00 +27°C° 0 mm 1 m/s 757 mmHg 63%
    10:00 +28°C° 0 mm 1 m/s 757 mmHg 56%
    11:00 +30°C° 0 mm 2 m/s 757 mmHg 48%
    12:00 +31°C° 0 mm 1 m/s 756 mmHg 45%
    13:00 +32°C° 0 mm 1 m/s 756 mmHg 42%
    14:00 +33°C° 0 mm 1 m/s 755 mmHg 38%
    15:00 +33°C° 0 mm 1 m/s 755 mmHg 37%
    16:00 +33°C° 0 mm 1 m/s 755 mmHg 37%
    17:00 +34°C° 0 mm 2 m/s 755 mmHg 36%
    18:00 +30°C° 0 mm 3 m/s 755 mmHg 40%
    19:00 +28°C° 0 mm 4 m/s 755 mmHg 44%
    20:00 +26°C° 0 mm 5 m/s 756 mmHg 49%
    21:00 +25°C° 0 mm 4 m/s 756 mmHg 54%
    22:00 +24°C° 0 mm 3 m/s 756 mmHg 59%
    23:00 +22°C° 0 mm 3 m/s 756 mmHg 64%
    Voir plus